• In Denmark
  • List of Countries
  • For 7 days
  • Water Temperature
  • Satellite Maps
  • Weather Map
  • Weather Widgets
  • user-avatar
    Login

    Hourly Weather Solden

    Today, 24 September, Monday

    Time Temperature Precipitation Wind Pressure Humidity
    00:00 +8°C° 1.3 mm 2 mps 584 mmHg 94%
    01:00 +7°C° 0 mm 3 mps 584 mmHg 94%
    02:00 +5°C° 0.7 mm 3 mps 584 mmHg 93%
    03:00 +5°C° 0.7 mm 3 mps 584 mmHg 91%
    04:00 +4°C° 0.7 mm 3 mps 584 mmHg 90%
    05:00 +3°C° 0 mm 4 mps 584 mmHg 88%
    06:00 +1°C° 0 mm 4 mps 584 mmHg 87%
    07:00 0°C° 0 mm 4 mps 584 mmHg 85%
    08:00 +1°C° 0 mm 4 mps 585 mmHg 76%
    09:00 +3°C° 0 mm 4 mps 586 mmHg 67%
    10:00 +4°C° 0 mm 4 mps 588 mmHg 58%
    11:00 +4°C° 0 mm 4 mps 588 mmHg 54%
    12:00 +5°C° 0 mm 3 mps 589 mmHg 49%
    13:00 +7°C° 0 mm 3 mps 590 mmHg 45%
    14:00 +7°C° 0 mm 3 mps 590 mmHg 46%
    15:00 +5°C° 0 mm 3 mps 590 mmHg 47%
    16:00 +5°C° 0 mm 3 mps 590 mmHg 48%
    17:00 +3°C° 0 mm 3 mps 589 mmHg 57%
    18:00 +1°C° 0 mm 3 mps 589 mmHg 65%
    19:00 -1°C° 0 mm 2 mps 588 mmHg 74%
    20:00 -2°C° 0 mm 2 mps 588 mmHg 75%
    21:00 -2°C° 0 mm 2 mps 589 mmHg 77%
    22:00 -3°C° 0 mm 2 mps 589 mmHg 79%
    23:00 -3°C° 0 mm 2 mps 589 mmHg 79%

    Tomorrow, 25 September, Tuesday

    Time Temperature Precipitation Wind Pressure Humidity
    00:00 -2°C° 0 mm 1 mps 589 mmHg 79%
    01:00 -2°C° 0 mm 1 mps 588 mmHg 78%
    02:00 -2°C° 0 mm 1 mps 588 mmHg 76%
    03:00 -3°C° 0 mm 1 mps 588 mmHg 73%
    04:00 -3°C° 0 mm 1 mps 588 mmHg 70%
    05:00 -2°C° 0 mm 1 mps 589 mmHg 66%
    06:00 -2°C° 0 mm 1 mps 589 mmHg 62%
    07:00 -1°C° 0 mm 1 mps 589 mmHg 58%
    08:00 +1°C° 0 mm 1 mps 591 mmHg 50%
    09:00 +4°C° 0 mm 1 mps 592 mmHg 41%
    10:00 +7°C° 0 mm 1 mps 593 mmHg 32%
    11:00 +8°C° 0 mm 1 mps 593 mmHg 32%
    12:00 +8°C° 0 mm 2 mps 594 mmHg 32%
    13:00 +9°C° 0 mm 2 mps 594 mmHg 32%
    14:00 +8°C° 0 mm 2 mps 594 mmHg 36%
    15:00 +8°C° 0 mm 2 mps 593 mmHg 40%
    16:00 +7°C° 0 mm 2 mps 593 mmHg 43%
    17:00 +5°C° 0 mm 2 mps 592 mmHg 56%
    18:00 +3°C° 0 mm 1 mps 591 mmHg 69%
    19:00 0°C° 0 mm 1 mps 590 mmHg 82%
    20:00 0°C° 0 mm 1 mps 590 mmHg 83%
    21:00 0°C° 0 mm 1 mps 591 mmHg 84%
    22:00 0°C° 0 mm 1 mps 591 mmHg 84%
    23:00 0°C° 0 mm 1 mps 591 mmHg 84%

    Day after tomorrow, 26 September, Wednesday

    Time Temperature Precipitation Wind Pressure Humidity
    00:00 0°C° 0 mm 1 mps 591 mmHg 84%
    01:00 0°C° 0 mm 1 mps 591 mmHg 84%
    02:00 0°C° 0 mm 1 mps 591 mmHg 84%
    03:00 0°C° 0 mm 1 mps 591 mmHg 85%
    04:00 0°C° 0 mm 1 mps 591 mmHg 85%
    05:00 0°C° 0 mm 1 mps 591 mmHg 81%
    06:00 0°C° 0 mm 1 mps 591 mmHg 77%
    07:00 +1°C° 0 mm 1 mps 592 mmHg 73%
    08:00 +4°C° 0 mm 1 mps 593 mmHg 61%
    09:00 +7°C° 0 mm 1 mps 594 mmHg 49%
    10:00 +10°C° 0 mm 1 mps 596 mmHg 36%
    11:00 +11°C° 0 mm 1 mps 596 mmHg 34%
    12:00 +12°C° 0 mm 1 mps 597 mmHg 33%
    13:00 +13°C° 0 mm 1 mps 597 mmHg 31%
    14:00 +13°C° 0 mm 1 mps 597 mmHg 34%
    15:00 +13°C° 0 mm 1 mps 596 mmHg 37%
    16:00 +12°C° 0 mm 2 mps 596 mmHg 41%
    17:00 +9°C° 0 mm 1 mps 594 mmHg 52%
    18:00 +6°C° 0 mm 1 mps 593 mmHg 64%
    19:00 +3°C° 0 mm 1 mps 592 mmHg 76%
    20:00 +3°C° 0 mm 1 mps 592 mmHg 75%
    21:00 +3°C° 0 mm 1 mps 592 mmHg 73%
    22:00 +3°C° 0 mm 1 mps 592 mmHg 72%
    23:00 +3°C° 0 mm 1 mps 592 mmHg 69%

    27 September, Thursday

    Time Temperature Precipitation Wind Pressure Humidity
    00:00 +3°C° 0 mm 1 mps 592 mmHg 65%
    01:00 +3°C° 0 mm 1 mps 592 mmHg 62%
    02:00 +3°C° 0 mm 1 mps 592 mmHg 58%
    03:00 +3°C° 0 mm 1 mps 591 mmHg 54%
    04:00 +3°C° 0 mm 1 mps 591 mmHg 49%
    05:00 +4°C° 0 mm 1 mps 591 mmHg 47%
    06:00 +4°C° 0 mm 1 mps 592 mmHg 45%
    07:00 +5°C° 0 mm 1 mps 592 mmHg 43%
    08:00 +8°C° 0 mm 1 mps 593 mmHg 37%
    09:00 +11°C° 0 mm 1 mps 595 mmHg 31%
    10:00 +15°C° 0 mm 1 mps 596 mmHg 25%
    11:00 +16°C° 0 mm 1 mps 597 mmHg 25%
    12:00 +16°C° 0 mm 1 mps 597 mmHg 25%
    13:00 +18°C° 0 mm 1 mps 597 mmHg 26%
    14:00 +18°C° 0 mm 1 mps 596 mmHg 29%
    15:00 +16°C° 0 mm 1 mps 595 mmHg 33%
    16:00 +15°C° 0 mm 2 mps 595 mmHg 37%
    17:00 +12°C° 0 mm 1 mps 593 mmHg 49%
    18:00 +9°C° 0 mm 1 mps 592 mmHg 62%
    19:00 +5°C° 0 mm 0 mps 590 mmHg 74%
    20:00 +4°C° 0 mm 0 mps 590 mmHg 74%
    21:00 +5°C° 0 mm 1 mps 590 mmHg 74%
    22:00 +5°C° 0 mm 1 mps 589 mmHg 74%
    23:00 +5°C° 0 mm 1 mps 589 mmHg 73%

    28 September, Friday

    Time Temperature Precipitation Wind Pressure Humidity
    00:00 +4°C° 0 mm 1 mps 589 mmHg 72%
    01:00 +4°C° 0 mm 1 mps 588 mmHg 71%
    02:00 +4°C° 0 mm 1 mps 588 mmHg 69%
    03:00 +4°C° 0 mm 1 mps 587 mmHg 67%
    04:00 +4°C° 0 mm 1 mps 587 mmHg 66%
    05:00 +4°C° 0 mm 1 mps 587 mmHg 62%
    06:00 +5°C° 0 mm 1 mps 587 mmHg 59%
    07:00 +5°C° 0 mm 1 mps 587 mmHg 55%
    08:00 +8°C° 0 mm 1 mps 588 mmHg 47%
    09:00 +12°C° 0 mm 1 mps 590 mmHg 38%
    10:00 +15°C° 0 mm 1 mps 591 mmHg 30%
    11:00 +16°C° 0 mm 1 mps 591 mmHg 29%
    12:00 +18°C° 0 mm 1 mps 591 mmHg 28%
    13:00 +18°C° 0 mm 1 mps 591 mmHg 26%
    14:00 +18°C° 0 mm 1 mps 590 mmHg 30%
    15:00 +16°C° 0 mm 2 mps 590 mmHg 33%
    16:00 +15°C° 0 mm 2 mps 589 mmHg 37%
    17:00 +12°C° 0 mm 2 mps 588 mmHg 49%
    18:00 +9°C° 0 mm 1 mps 587 mmHg 62%
    19:00 +6°C° 0 mm 1 mps 585 mmHg 74%
    20:00 +6°C° 0 mm 1 mps 585 mmHg 77%
    21:00 +4°C° 0 mm 2 mps 585 mmHg 79%
    22:00 +4°C° 0 mm 2 mps 585 mmHg 82%
    23:00 +4°C° 0 mm 2 mps 585 mmHg 83%

    29 September, Saturday

    Time Temperature Precipitation Wind Pressure Humidity
    00:00 +3°C° 0 mm 2 mps 585 mmHg 83%
    01:00 +3°C° 0 mm 2 mps 585 mmHg 84%
    02:00 +3°C° 0 mm 2 mps 584 mmHg 84%
    03:00 +3°C° 0 mm 2 mps 584 mmHg 85%
    04:00 +2°C° 0 mm 2 mps 584 mmHg 85%
    05:00 +2°C° 0 mm 2 mps 584 mmHg 85%
    06:00 +2°C° 0 mm 2 mps 584 mmHg 84%
    07:00 +2°C° 0 mm 2 mps 584 mmHg 84%
    08:00 +6°C° 0 mm 1 mps 586 mmHg 73%
    09:00 +8°C° 0 mm 1 mps 587 mmHg 62%
    10:00 +10°C° 0 mm 1 mps 588 mmHg 52%
    11:00 +11°C° 0 mm 1 mps 588 mmHg 49%
    12:00 +12°C° 0 mm 1 mps 589 mmHg 46%
    13:00 +13°C° 0 mm 1 mps 589 mmHg 43%
    14:00 +12°C° 0 mm 2 mps 588 mmHg 46%
    15:00 +12°C° 0 mm 2 mps 588 mmHg 50%
    16:00 +10°C° 0 mm 2 mps 588 mmHg 53%
    17:00 +8°C° 0 mm 2 mps 587 mmHg 63%
    18:00 +7°C° 0 mm 1 mps 586 mmHg 74%
    19:00 +5°C° 0 mm 1 mps 585 mmHg 84%
    20:00 +5°C° 0 mm 1 mps 586 mmHg 86%
    21:00 +4°C° 0 mm 1 mps 586 mmHg 88%
    22:00 +4°C° 0 mm 1 mps 586 mmHg 90%
    23:00 +4°C° 0 mm 1 mps 586 mmHg 91%
    Show more